Time,TemperatureF,DewpointF,PressureIn,WindDirection,WindDirectionDegrees,WindSpeedMPH,WindSpeedGustMPH,Humidity,HourlyPrecipIn,Conditions,Clouds,dailyrainin,SoftwareType,DateUTC
2013-08-08 00:02:00,59.5,58.0,30.04,West,280,2.0,4.0,94,0.00,,,0.00,weatherlink.com 1.10,2013-08-08 07:02:00,
2013-08-08 00:17:00,58.8,58.0,30.05,WNW,300,4.0,5.0,96,0.00,,,0.00,weatherlink.com 1.10,2013-08-08 07:17:00,
2013-08-08 00:32:00,58.6,58.0,30.05,WNW,293,0.0,2.0,96,0.00,,,0.00,weatherlink.com 1.10,2013-08-08 07:32:00,
2013-08-08 00:47:00,59.3,58.0,30.04,West,266,5.0,6.0,95,0.00,,,0.00,weatherlink.com 1.10,2013-08-08 07:47:00,
2013-08-08 01:02:00,59.1,57.0,30.04,NW,308,3.0,6.0,94,0.00,,,0.00,weatherlink.com 1.10,2013-08-08 08:02:00,
2013-08-08 01:17:00,58.4,57.0,30.03,NNW,335,0.0,0.0,95,0.00,,,0.00,weatherlink.com 1.10,2013-08-08 08:17:00,
2013-08-08 01:32:00,58.8,58.0,30.03,West,281,3.0,3.0,96,0.00,,,0.00,weatherlink.com 1.10,2013-08-08 08:32:00,
2013-08-08 01:48:00,59.0,58.0,30.03,WSW,254,4.0,6.0,96,0.00,,,0.00,weatherlink.com 1.10,2013-08-08 08:48:00,
2013-08-08 02:02:00,59.1,58.0,30.03,WNW,297,3.0,3.0,95,0.00,,,0.00,weatherlink.com 1.10,2013-08-08 09:02:00,
2013-08-08 02:17:00,59.0,57.0,30.02,WNW,284,3.0,4.0,94,0.00,,,0.00,weatherlink.com 1.10,2013-08-08 09:17:00,
2013-08-08 02:32:00,58.3,57.0,30.02,West,281,0.0,3.0,95,0.00,,,0.00,weatherlink.com 1.10,2013-08-08 09:32:00,
2013-08-08 02:47:00,58.0,57.0,30.02,West,271,2.0,5.0,95,0.00,,,0.00,weatherlink.com 1.10,2013-08-08 09:47:00,
2013-08-08 03:02:00,58.2,57.0,30.02,West,276,5.0,7.0,95,0.00,,,0.00,weatherlink.com 1.10,2013-08-08 10:02:00,
2013-08-08 03:17:00,57.9,56.0,30.02,West,276,3.0,6.0,94,0.00,,,0.00,weatherlink.com 1.10,2013-08-08 10:17:00,
2013-08-08 03:32:00,58.0,57.0,30.01,West,270,6.0,7.0,95,0.00,,,0.00,weatherlink.com 1.10,2013-08-08 10:32:00,
2013-08-08 03:47:00,57.8,56.0,30.01,WNW,287,3.0,6.0,94,0.00,,,0.00,weatherlink.com 1.10,2013-08-08 10:47:00,
2013-08-08 04:02:00,58.0,57.0,30.01,WNW,283,0.0,5.0,95,0.00,,,0.00,weatherlink.com 1.10,2013-08-08 11:02:00,
2013-08-08 04:17:00,57.9,56.0,30.01,West,262,5.0,5.0,93,0.00,,,0.00,weatherlink.com 1.10,2013-08-08 11:17:00,
2013-08-08 04:32:00,58.2,57.0,30.01,West,281,1.0,5.0,94,0.00,,,0.00,weatherlink.com 1.10,2013-08-08 11:32:00,
2013-08-08 04:47:00,57.6,56.0,30.01,WNW,295,2.0,4.0,95,0.00,,,0.00,weatherlink.com 1.10,2013-08-08 11:47:00,
2013-08-08 05:02:00,57.6,56.0,30.01,SW,218,3.0,4.0,95,0.00,,,0.00,weatherlink.com 1.10,2013-08-08 12:02:00,
2013-08-08 05:17:00,58.1,56.0,30.00,WNW,293,2.0,4.0,93,0.00,,,0.00,weatherlink.com 1.10,2013-08-08 12:17:00,
2013-08-08 05:32:00,58.6,57.0,30.01,WNW,293,2.0,5.0,93,0.00,,,0.00,weatherlink.com 1.10,2013-08-08 12:32:00,
2013-08-08 05:48:00,57.4,56.0,30.01,WNW,290,2.0,4.0,95,0.00,,,0.00,weatherlink.com 1.10,2013-08-08 12:48:00,
2013-08-08 06:02:00,57.2,56.0,30.01,West,262,3.0,4.0,96,0.00,,,0.00,weatherlink.com 1.10,2013-08-08 13:02:00,
2013-08-08 06:18:00,57.2,56.0,30.02,WNW,282,2.0,4.0,96,0.00,,,0.00,weatherlink.com 1.10,2013-08-08 13:18:00,
2013-08-08 06:33:00,56.7,56.0,30.02,WNW,292,2.0,4.0,96,0.00,,,0.00,weatherlink.com 1.10,2013-08-08 13:33:00,
2013-08-08 06:48:00,56.7,56.0,30.02,WNW,283,3.0,4.0,96,0.00,,,0.00,weatherlink.com 1.10,2013-08-08 13:48:00,
2013-08-08 07:03:00,56.9,56.0,30.02,West,276,3.0,5.0,97,0.00,,,0.00,weatherlink.com 1.10,2013-08-08 14:03:00,
2013-08-08 07:18:00,56.4,55.0,30.02,WNW,291,1.0,3.0,96,0.00,,,0.00,weatherlink.com 1.10,2013-08-08 14:18:00,
2013-08-08 07:33:00,57.0,56.0,30.02,NW,312,5.0,8.0,97,0.00,,,0.00,weatherlink.com 1.10,2013-08-08 14:33:00,
2013-08-08 07:48:00,57.0,56.0,30.03,West,276,3.0,5.0,97,0.00,,,0.00,weatherlink.com 1.10,2013-08-08 14:48:00,
2013-08-08 08:03:00,57.3,57.0,30.03,WNW,282,2.0,6.0,97,0.00,,,0.00,weatherlink.com 1.10,2013-08-08 15:03:00,
2013-08-08 08:18:00,57.1,56.0,30.03,West,263,4.0,8.0,97,0.01,,,0.01,weatherlink.com 1.10,2013-08-08 15:18:00,
2013-08-08 08:33:00,57.1,56.0,30.03,WNW,284,3.0,6.0,96,0.01,,,0.01,weatherlink.com 1.10,2013-08-08 15:33:00,
2013-08-08 08:48:00,57.4,56.0,30.03,WNW,301,3.0,7.0,96,0.01,,,0.01,weatherlink.com 1.10,2013-08-08 15:48:00,
2013-08-08 09:03:00,57.6,56.0,30.03,WSW,257,5.0,5.0,95,0.01,,,0.01,weatherlink.com 1.10,2013-08-08 16:03:00,
2013-08-08 09:18:00,57.7,56.0,30.03,West,280,1.0,5.0,93,0.00,,,0.01,weatherlink.com 1.10,2013-08-08 16:18:00,
2013-08-08 09:33:00,58.6,56.0,30.02,NW,308,3.0,4.0,92,0.00,,,0.01,weatherlink.com 1.10,2013-08-08 16:33:00,
2013-08-08 09:48:00,59.5,57.0,30.03,NW,305,3.0,9.0,90,0.00,,,0.01,weatherlink.com 1.10,2013-08-08 16:48:00,
2013-08-08 10:03:00,59.5,57.0,30.03,West,263,3.0,7.0,91,0.00,,,0.01,weatherlink.com 1.10,2013-08-08 17:03:00,
2013-08-08 10:18:00,60.1,57.0,30.03,NW,304,5.0,8.0,88,0.00,,,0.01,weatherlink.com 1.10,2013-08-08 17:18:00,
2013-08-08 10:33:00,59.6,57.0,30.03,WNW,284,6.0,7.0,90,0.00,,,0.01,weatherlink.com 1.10,2013-08-08 17:33:00,
2013-08-08 10:48:00,60.3,57.0,30.04,WNW,288,2.0,6.0,89,0.00,,,0.01,weatherlink.com 1.10,2013-08-08 17:48:00,
2013-08-08 11:03:00,60.9,57.0,30.04,West,267,8.0,8.0,87,0.00,,,0.01,weatherlink.com 1.10,2013-08-08 18:03:00,
2013-08-08 11:18:00,60.3,57.0,30.03,WNW,299,4.0,10.0,88,0.00,,,0.01,weatherlink.com 1.10,2013-08-08 18:18:00,
2013-08-08 11:33:00,60.3,57.0,30.03,West,266,7.0,7.0,88,0.00,,,0.01,weatherlink.com 1.10,2013-08-08 18:33:00,
2013-08-08 11:48:00,61.3,57.0,30.03,West,281,6.0,8.0,87,0.00,,,0.01,weatherlink.com 1.10,2013-08-08 18:48:00,
2013-08-08 12:03:00,60.7,57.0,30.03,WSW,246,4.0,10.0,87,0.00,,,0.01,weatherlink.com 1.10,2013-08-08 19:03:00,
2013-08-08 12:18:00,60.1,56.0,30.03,West,278,5.0,11.0,87,0.00,,,0.01,weatherlink.com 1.10,2013-08-08 19:18:00,
2013-08-08 12:33:00,60.4,57.0,30.03,West,278,6.0,11.0,87,0.00,,,0.01,weatherlink.com 1.10,2013-08-08 19:33:00,
2013-08-08 12:48:00,60.4,56.0,30.03,WNW,299,9.0,11.0,86,0.00,,,0.01,weatherlink.com 1.10,2013-08-08 19:48:00,
2013-08-08 13:03:00,60.2,56.0,30.03,West,263,8.0,13.0,86,0.00,,,0.01,weatherlink.com 1.10,2013-08-08 20:03:00,
2013-08-08 13:18:00,60.3,56.0,30.03,WNW,283,4.0,13.0,86,0.00,,,0.01,weatherlink.com 1.10,2013-08-08 20:18:00,
2013-08-08 13:33:00,59.6,56.0,30.03,WNW,300,5.0,14.0,87,0.00,,,0.01,weatherlink.com 1.10,2013-08-08 20:33:00,
2013-08-08 13:48:00,59.8,56.0,30.03,West,280,3.0,12.0,86,0.00,,,0.01,weatherlink.com 1.10,2013-08-08 20:48:00,
2013-08-08 14:03:00,60.5,56.0,30.03,NW,309,8.0,13.0,85,0.00,,,0.01,weatherlink.com 1.10,2013-08-08 21:03:00,
2013-08-08 14:18:00,60.0,56.0,30.02,West,278,8.0,13.0,87,0.00,,,0.01,weatherlink.com 1.10,2013-08-08 21:18:00,
2013-08-08 14:33:00,59.8,56.0,30.03,West,278,7.0,13.0,87,0.00,,,0.01,weatherlink.com 1.10,2013-08-08 21:33:00,
2013-08-08 14:48:00,59.1,55.0,30.03,WNW,285,6.0,14.0,86,0.00,,,0.01,weatherlink.com 1.10,2013-08-08 21:48:00,
2013-08-08 15:03:00,58.6,55.0,30.02,NW,307,8.0,14.0,89,0.00,,,0.01,weatherlink.com 1.10,2013-08-08 22:03:00,
2013-08-08 15:18:00,58.2,55.0,30.02,WSW,255,8.0,14.0,88,0.00,,,0.01,weatherlink.com 1.10,2013-08-08 22:18:00,
2013-08-08 15:33:00,58.6,56.0,30.01,West,273,9.0,12.0,90,0.00,,,0.01,weatherlink.com 1.10,2013-08-08 22:33:00,
2013-08-08 16:03:00,58.0,55.0,30.01,West,259,8.0,14.0,89,0.00,,,0.01,weatherlink.com 1.10,2013-08-08 23:03:00,
2013-08-08 16:18:00,58.4,55.0,30.01,West,274,13.0,15.0,88,0.00,,,0.01,weatherlink.com 1.10,2013-08-08 23:18:00,
2013-08-08 17:03:00,58.4,55.0,30.00,West,277,5.0,14.0,89,0.00,,,0.01,weatherlink.com 1.10,2013-08-09 00:03:00,
2013-08-08 17:18:00,58.4,56.0,30.00,West,271,11.0,16.0,90,0.00,,,0.01,weatherlink.com 1.10,2013-08-09 00:18:00,
2013-08-08 17:33:00,58.2,55.0,30.00,West,274,11.0,13.0,89,0.00,,,0.01,weatherlink.com 1.10,2013-08-09 00:33:00,
2013-08-08 17:48:00,57.9,55.0,30.00,WNW,297,11.0,15.0,91,0.00,,,0.01,weatherlink.com 1.10,2013-08-09 00:48:00,
2013-08-08 18:03:00,57.4,55.0,29.99,WNW,289,5.0,15.0,92,0.00,,,0.01,weatherlink.com 1.10,2013-08-09 01:03:00,
2013-08-08 18:18:00,57.2,55.0,29.99,West,272,8.0,17.0,92,0.00,,,0.01,weatherlink.com 1.10,2013-08-09 01:18:00,
2013-08-08 18:34:00,57.1,55.0,29.98,West,276,6.0,15.0,92,0.00,,,0.01,weatherlink.com 1.10,2013-08-09 01:34:00,
2013-08-08 18:49:00,56.5,54.0,29.98,WNW,284,4.0,14.0,92,0.00,,,0.01,weatherlink.com 1.10,2013-08-09 01:49:00,
2013-08-08 19:04:00,56.1,54.0,29.98,West,278,4.0,14.0,93,0.00,,,0.01,weatherlink.com 1.10,2013-08-09 02:04:00,
2013-08-08 19:19:00,55.6,54.0,29.98,WNW,290,10.0,14.0,93,0.00,,,0.01,weatherlink.com 1.10,2013-08-09 02:19:00,
2013-08-08 19:34:00,55.4,54.0,29.98,West,274,7.0,14.0,94,0.00,,,0.01,weatherlink.com 1.10,2013-08-09 02:34:00,
2013-08-08 20:04:00,55.3,54.0,29.98,WNW,301,6.0,16.0,94,0.00,,,0.01,weatherlink.com 1.10,2013-08-09 03:04:00,
2013-08-08 20:19:00,55.0,54.0,29.98,West,274,10.0,13.0,95,0.00,,,0.01,weatherlink.com 1.10,2013-08-09 03:19:00,
2013-08-08 20:34:00,55.0,54.0,29.98,WNW,285,10.0,11.0,95,0.00,,,0.01,weatherlink.com 1.10,2013-08-09 03:34:00,
2013-08-08 20:49:00,55.1,54.0,29.98,WNW,287,8.0,12.0,95,0.00,,,0.01,weatherlink.com 1.10,2013-08-09 03:49:00,
2013-08-08 21:04:00,55.0,54.0,29.98,NW,307,8.0,11.0,96,0.00,,,0.01,weatherlink.com 1.10,2013-08-09 04:04:00,
2013-08-08 21:19:00,54.7,54.0,29.98,NW,312,4.0,11.0,96,0.00,,,0.01,weatherlink.com 1.10,2013-08-09 04:19:00,
2013-08-08 21:34:00,54.8,54.0,29.99,WSW,256,5.0,10.0,96,0.00,,,0.01,weatherlink.com 1.10,2013-08-09 04:34:00,
2013-08-08 21:49:00,55.3,54.0,29.99,WNW,297,3.0,10.0,96,0.00,,,0.01,weatherlink.com 1.10,2013-08-09 04:49:00,
2013-08-08 22:04:00,54.8,54.0,30.00,West,269,5.0,10.0,96,0.00,,,0.01,weatherlink.com 1.10,2013-08-09 05:04:00,
2013-08-08 22:19:00,54.6,54.0,29.99,WNW,287,8.0,12.0,96,0.00,,,0.01,weatherlink.com 1.10,2013-08-09 05:19:00,
2013-08-08 22:34:00,54.0,53.0,29.99,West,263,9.0,12.0,97,0.00,,,0.01,weatherlink.com 1.10,2013-08-09 05:34:00,
2013-08-08 22:49:00,53.7,53.0,29.98,WNW,293,5.0,9.0,97,0.00,,,0.01,weatherlink.com 1.10,2013-08-09 05:49:00,
2013-08-08 23:04:00,54.1,53.0,29.98,West,260,10.0,10.0,97,0.00,,,0.01,weatherlink.com 1.10,2013-08-09 06:04:00,
2013-08-08 23:19:00,54.4,54.0,29.98,West,276,6.0,7.0,97,0.00,,,0.01,weatherlink.com 1.10,2013-08-09 06:19:00,
2013-08-08 23:34:00,54.5,53.0,29.98,West,260,3.0,6.0,96,0.00,,,0.01,weatherlink.com 1.10,2013-08-09 06:34:00,
2013-08-08 23:49:00,54.8,54.0,29.98,West,281,3.0,6.0,97,0.00,,,0.01,weatherlink.com 1.10,2013-08-09 06:49:00,